Year,Month,Day,Hour,Minute,Value (Times are PST for temperature in C)
2008,08,14,00,00,17.40
2008,08,14,00,01,17.40
2008,08,14,00,02,17.40
2008,08,14,00,03,17.30
2008,08,14,00,04,17.30
2008,08,14,00,05,17.30
2008,08,14,00,06,17.30
2008,08,14,00,07,17.30
2008,08,14,00,08,17.30
2008,08,14,00,09,17.30
2008,08,14,00,10,17.30
2008,08,14,00,11,17.30
2008,08,14,00,12,17.20
2008,08,14,00,13,17.20
2008,08,14,00,14,17.20
2008,08,14,00,15,17.20
2008,08,14,00,16,17.10
2008,08,14,00,17,17.10
2008,08,14,00,18,17.10
2008,08,14,00,19,17.10
2008,08,14,00,20,17.00
2008,08,14,00,21,17.00
2008,08,14,00,22,17.00
2008,08,14,00,23,17.00
2008,08,14,00,24,17.00
2008,08,14,00,25,17.00
2008,08,14,00,26,17.00
2008,08,14,00,27,17.00
2008,08,14,00,28,17.00
2008,08,14,00,29,17.00
2008,08,14,00,30,17.00
2008,08,14,00,31,16.90
2008,08,14,00,32,16.90
2008,08,14,00,33,16.90
2008,08,14,00,34,16.90
2008,08,14,00,35,16.90
2008,08,14,00,36,16.90
2008,08,14,00,37,16.90
2008,08,14,00,38,16.90
2008,08,14,00,39,16.90
2008,08,14,00,40,16.90
2008,08,14,00,41,16.90
2008,08,14,00,42,16.90
2008,08,14,00,43,16.90
2008,08,14,00,44,16.90
2008,08,14,00,45,16.90
2008,08,14,00,46,16.90
2008,08,14,00,47,16.90
2008,08,14,00,48,16.90
2008,08,14,00,49,16.90
2008,08,14,00,50,16.90
2008,08,14,00,51,16.90
2008,08,14,00,52,16.90
2008,08,14,00,53,16.90
2008,08,14,00,54,16.80
2008,08,14,00,55,16.80
2008,08,14,00,56,16.80
2008,08,14,00,57,16.80
2008,08,14,00,58,16.80
2008,08,14,00,59,16.80
2008,08,14,01,00,16.80
2008,08,14,01,01,16.80
2008,08,14,01,02,16.80
2008,08,14,01,03,16.80
2008,08,14,01,04,16.70
2008,08,14,01,05,16.70
2008,08,14,01,06,16.70
2008,08,14,01,07,16.70
2008,08,14,01,08,16.70
2008,08,14,01,09,16.70
2008,08,14,01,10,16.70
2008,08,14,01,11,16.70
2008,08,14,01,12,16.70
2008,08,14,01,13,16.60
2008,08,14,01,14,16.60
2008,08,14,01,15,16.60
2008,08,14,01,16,16.60
2008,08,14,01,17,16.60
2008,08,14,01,18,16.60
2008,08,14,01,19,16.40
2008,08,14,01,20,16.40
2008,08,14,01,21,16.40
2008,08,14,01,22,16.40
2008,08,14,01,23,16.40
2008,08,14,01,24,16.40
2008,08,14,01,25,16.40
2008,08,14,01,26,16.40
2008,08,14,01,27,16.40
2008,08,14,01,28,16.40
2008,08,14,01,29,16.40
2008,08,14,01,30,16.30
2008,08,14,01,31,16.30
2008,08,14,01,32,16.30
2008,08,14,01,33,16.30
2008,08,14,01,34,16.30
2008,08,14,01,35,16.30
2008,08,14,01,36,16.30
2008,08,14,01,37,16.30
2008,08,14,01,38,16.30
2008,08,14,01,39,16.30
2008,08,14,01,40,16.30
2008,08,14,01,41,16.30
2008,08,14,01,42,16.30
2008,08,14,01,43,16.30
2008,08,14,01,44,16.30
2008,08,14,01,45,16.30
2008,08,14,01,46,16.30
2008,08,14,01,47,16.30
2008,08,14,01,48,16.30
2008,08,14,01,49,16.30
2008,08,14,01,50,16.30
2008,08,14,01,51,16.30
2008,08,14,01,52,16.30
2008,08,14,01,53,16.30
2008,08,14,01,54,16.30
2008,08,14,01,55,16.30
2008,08,14,01,56,16.30
2008,08,14,01,57,16.30
2008,08,14,01,58,16.30
2008,08,14,01,59,16.30
2008,08,14,02,00,16.30
2008,08,14,02,01,16.30
2008,08,14,02,02,16.30
2008,08,14,02,03,16.30
2008,08,14,02,04,16.30
2008,08,14,02,05,16.30
2008,08,14,02,06,16.30
2008,08,14,02,07,16.30
2008,08,14,02,08,16.30
2008,08,14,02,09,16.30
2008,08,14,02,10,16.30
2008,08,14,02,11,16.30
2008,08,14,02,12,16.30
2008,08,14,02,13,16.30
2008,08,14,02,14,16.30
2008,08,14,02,15,16.30
2008,08,14,02,16,16.30
2008,08,14,02,17,16.30
2008,08,14,02,18,16.40
2008,08,14,02,19,16.40
2008,08,14,02,20,16.40
2008,08,14,02,21,16.40
2008,08,14,02,22,16.40
2008,08,14,02,23,16.40
2008,08,14,02,24,16.40
2008,08,14,02,25,16.40
2008,08,14,02,26,16.40
2008,08,14,02,27,16.40
2008,08,14,02,28,16.40
2008,08,14,02,29,16.40
2008,08,14,02,30,16.30
2008,08,14,02,31,16.30
2008,08,14,02,32,16.30
2008,08,14,02,33,16.30
2008,08,14,02,34,16.30
2008,08,14,02,35,16.20
2008,08,14,02,36,16.20
2008,08,14,02,37,16.20
2008,08,14,02,38,16.10
2008,08,14,02,39,16.10
2008,08,14,02,40,16.10
2008,08,14,02,41,16.10
2008,08,14,02,42,16.10
2008,08,14,02,43,16.10
2008,08,14,02,44,16.10
2008,08,14,02,45,16.00
2008,08,14,02,46,15.90
2008,08,14,02,47,15.90
2008,08,14,02,48,15.90
2008,08,14,02,49,15.90
2008,08,14,02,50,15.90
2008,08,14,02,51,15.80
2008,08,14,02,52,15.80
2008,08,14,02,53,15.80
2008,08,14,02,54,15.80
2008,08,14,02,55,15.80
2008,08,14,02,56,15.80
2008,08,14,02,57,15.80
2008,08,14,02,58,15.80
2008,08,14,02,59,15.80
2008,08,14,03,00,15.80
2008,08,14,03,01,15.80
2008,08,14,03,02,15.70
2008,08,14,03,03,15.70
2008,08,14,03,04,15.70
2008,08,14,03,05,15.70
2008,08,14,03,06,15.70
2008,08,14,03,07,15.70
2008,08,14,03,08,15.60
2008,08,14,03,09,15.60
2008,08,14,03,10,15.60
2008,08,14,03,11,15.60
2008,08,14,03,12,15.60
2008,08,14,03,13,15.60
2008,08,14,03,14,15.60
2008,08,14,03,15,15.60
2008,08,14,03,16,15.60
2008,08,14,03,17,15.60
2008,08,14,03,18,15.50
2008,08,14,03,19,15.50
2008,08,14,03,20,15.50
2008,08,14,03,21,15.50
2008,08,14,03,22,15.50
2008,08,14,03,23,15.50
2008,08,14,03,24,15.50
2008,08,14,03,25,15.40
2008,08,14,03,26,15.40
2008,08,14,03,27,15.40
2008,08,14,03,28,15.40
2008,08,14,03,29,15.40
2008,08,14,03,30,15.40
2008,08,14,03,31,15.40
2008,08,14,03,32,15.40
2008,08,14,03,33,15.30
2008,08,14,03,34,15.30
2008,08,14,03,35,15.30
2008,08,14,03,36,15.30
2008,08,14,03,37,15.30
2008,08,14,03,38,15.30
2008,08,14,03,39,15.30
2008,08,14,03,40,15.30
2008,08,14,03,41,15.30
2008,08,14,03,42,15.30
2008,08,14,03,43,15.30
2008,08,14,03,44,15.30
2008,08,14,03,45,15.30
2008,08,14,03,46,15.30
2008,08,14,03,47,15.30
2008,08,14,03,48,15.20
2008,08,14,03,49,15.20
2008,08,14,03,50,15.20
2008,08,14,03,51,15.20
2008,08,14,03,52,15.20
2008,08,14,03,53,15.20
2008,08,14,03,54,15.20
2008,08,14,03,55,15.20
2008,08,14,03,56,15.20
2008,08,14,03,57,15.20
2008,08,14,03,58,15.20
2008,08,14,03,59,15.20
2008,08,14,04,00,15.20
2008,08,14,04,01,15.20
2008,08,14,04,02,15.20
2008,08,14,04,03,15.20
2008,08,14,04,04,15.20
2008,08,14,04,05,15.20
2008,08,14,04,06,15.20
2008,08,14,04,07,15.20
2008,08,14,04,08,15.20
2008,08,14,04,09,15.20
2008,08,14,04,10,15.20
2008,08,14,04,11,15.20
2008,08,14,04,12,15.20
2008,08,14,04,13,15.20
2008,08,14,04,14,15.20
2008,08,14,04,15,15.20
2008,08,14,04,16,15.20
2008,08,14,04,17,15.20
2008,08,14,04,18,15.20
2008,08,14,04,19,15.20
2008,08,14,04,20,15.30
2008,08,14,04,21,15.30
2008,08,14,04,22,15.30
2008,08,14,04,23,15.30
2008,08,14,04,24,15.30
2008,08,14,04,25,15.30
2008,08,14,04,26,15.30
2008,08,14,04,27,15.20
2008,08,14,04,28,15.20
2008,08,14,04,29,15.20
2008,08,14,04,30,15.20
2008,08,14,04,31,15.20
2008,08,14,04,32,15.20
2008,08,14,04,33,15.20
2008,08,14,04,34,15.20
2008,08,14,04,35,15.20
2008,08,14,04,36,15.20
2008,08,14,04,37,15.20
2008,08,14,04,38,15.20
2008,08,14,04,39,15.20
2008,08,14,04,40,15.30
2008,08,14,04,41,15.30
2008,08,14,04,42,15.30
2008,08,14,04,43,15.30
2008,08,14,04,44,15.30
2008,08,14,04,45,15.30
2008,08,14,04,46,15.30
2008,08,14,04,47,15.30
2008,08,14,04,48,15.30
2008,08,14,04,49,15.30
2008,08,14,04,50,15.30
2008,08,14,04,51,15.30
2008,08,14,04,52,15.30
2008,08,14,04,53,15.30
2008,08,14,04,54,15.30
2008,08,14,04,55,15.30
2008,08,14,04,56,15.30
2008,08,14,04,57,15.30
2008,08,14,04,58,15.30
2008,08,14,04,59,15.30
2008,08,14,05,00,15.20
2008,08,14,05,01,15.20
2008,08,14,05,02,15.20
2008,08,14,05,03,15.20
2008,08,14,05,04,15.20
2008,08,14,05,05,15.20
2008,08,14,05,06,15.20
2008,08,14,05,07,15.20
2008,08,14,05,08,15.20
2008,08,14,05,09,15.20
2008,08,14,05,10,15.20
2008,08,14,05,11,15.20
2008,08,14,05,12,15.10
2008,08,14,05,13,15.10
2008,08,14,05,14,15.10
2008,08,14,05,15,15.10
2008,08,14,05,16,15.10
2008,08,14,05,17,15.10
2008,08,14,05,18,15.10
2008,08,14,05,19,15.10
2008,08,14,05,20,15.10
2008,08,14,05,21,15.10
2008,08,14,05,22,15.20
2008,08,14,05,23,15.20
2008,08,14,05,24,15.20
2008,08,14,05,25,15.20
2008,08,14,05,26,15.20
2008,08,14,05,27,15.10
2008,08,14,05,28,15.10
2008,08,14,05,29,15.10
2008,08,14,05,30,15.10
2008,08,14,05,31,15.10
2008,08,14,05,32,15.10
2008,08,14,05,33,15.10
2008,08,14,05,34,15.00
2008,08,14,05,35,15.00
2008,08,14,05,36,15.00
2008,08,14,05,37,15.00
2008,08,14,05,38,15.00
2008,08,14,05,39,15.00
2008,08,14,05,40,15.00
2008,08,14,05,41,15.00
2008,08,14,05,42,15.00
2008,08,14,05,43,15.00
2008,08,14,05,44,15.00
2008,08,14,05,45,15.00
2008,08,14,05,46,15.00
2008,08,14,05,47,15.00
2008,08,14,05,48,15.00
2008,08,14,05,49,15.10
2008,08,14,05,50,15.10
2008,08,14,05,51,15.10
2008,08,14,05,52,15.10
2008,08,14,05,53,15.10
2008,08,14,05,54,15.10
2008,08,14,05,55,15.10
2008,08,14,05,56,15.10
2008,08,14,05,57,15.00
2008,08,14,05,58,15.00
2008,08,14,05,59,15.00
2008,08,14,06,00,15.00
2008,08,14,06,01,15.00
2008,08,14,06,02,15.00
2008,08,14,06,03,15.00
2008,08,14,06,04,15.00
2008,08,14,06,05,15.00
2008,08,14,06,06,15.00
2008,08,14,06,07,15.00
2008,08,14,06,08,14.90
2008,08,14,06,09,14.90
2008,08,14,06,10,14.90
2008,08,14,06,11,14.90
2008,08,14,06,12,14.90
2008,08,14,06,13,14.90
2008,08,14,06,14,14.90
2008,08,14,06,15,14.90
2008,08,14,06,16,14.80
2008,08,14,06,17,14.80
2008,08,14,06,18,14.80
2008,08,14,06,19,14.80
2008,08,14,06,20,14.80
2008,08,14,06,21,14.80
2008,08,14,06,22,14.80
2008,08,14,06,23,14.80
2008,08,14,06,24,14.80
2008,08,14,06,25,14.80
2008,08,14,06,26,14.80
2008,08,14,06,27,14.80
2008,08,14,06,28,14.80
2008,08,14,06,29,14.80
2008,08,14,06,30,14.80
2008,08,14,06,31,14.80
2008,08,14,06,32,14.80
2008,08,14,06,33,14.90
2008,08,14,06,34,14.90
2008,08,14,06,35,14.90
2008,08,14,06,36,14.90
2008,08,14,06,37,14.90
2008,08,14,06,38,14.90
2008,08,14,06,39,14.90
2008,08,14,06,40,14.90
2008,08,14,06,41,14.90
2008,08,14,06,42,14.90
2008,08,14,06,43,15.00
2008,08,14,06,44,15.00
2008,08,14,06,45,15.00
2008,08,14,06,46,15.00
2008,08,14,06,47,15.00
2008,08,14,06,48,15.10
2008,08,14,06,49,15.10
2008,08,14,06,50,15.10
2008,08,14,06,51,15.20
2008,08,14,06,52,15.20
2008,08,14,06,53,15.20
2008,08,14,06,54,15.30
2008,08,14,06,55,15.30
2008,08,14,06,56,15.30
2008,08,14,06,57,15.40
2008,08,14,06,58,15.40
2008,08,14,06,59,15.50
2008,08,14,07,00,15.50
2008,08,14,07,01,15.50
2008,08,14,07,02,15.60
2008,08,14,07,03,15.60
2008,08,14,07,04,15.60
2008,08,14,07,05,15.70
2008,08,14,07,06,15.70
2008,08,14,07,07,15.80
2008,08,14,07,08,15.80
2008,08,14,07,09,15.80
2008,08,14,07,10,15.80
2008,08,14,07,11,15.90
2008,08,14,07,12,15.90
2008,08,14,07,13,16.00
2008,08,14,07,14,16.10
2008,08,14,07,15,16.10
2008,08,14,07,16,16.10
2008,08,14,07,17,16.10
2008,08,14,07,18,16.20
2008,08,14,07,19,16.20
2008,08,14,07,20,16.30
2008,08,14,07,21,16.30
2008,08,14,07,22,16.30
2008,08,14,07,23,16.40
2008,08,14,07,24,16.40
2008,08,14,07,25,16.40
2008,08,14,07,26,16.50
2008,08,14,07,27,16.60
2008,08,14,07,28,16.70
2008,08,14,07,29,16.70
2008,08,14,07,30,16.80
2008,08,14,07,31,16.90
2008,08,14,07,32,17.00
2008,08,14,07,33,17.00
2008,08,14,07,34,17.10
2008,08,14,07,35,17.20
2008,08,14,07,36,17.20
2008,08,14,07,37,17.30
2008,08,14,07,38,17.30
2008,08,14,07,39,17.40
2008,08,14,07,40,17.40
2008,08,14,07,41,17.50
2008,08,14,07,42,17.50
2008,08,14,07,43,17.60
2008,08,14,07,44,17.70
2008,08,14,07,45,17.70
2008,08,14,07,46,17.80
2008,08,14,07,47,17.80
2008,08,14,07,48,17.90
2008,08,14,07,49,17.90
2008,08,14,07,50,18.00
2008,08,14,07,51,18.10
2008,08,14,07,52,18.20
2008,08,14,07,53,18.20
2008,08,14,07,54,18.30
2008,08,14,07,55,18.40
2008,08,14,07,56,18.50
2008,08,14,07,57,18.60
2008,08,14,07,58,18.70
2008,08,14,07,59,18.90
2008,08,14,08,00,19.00
2008,08,14,08,01,19.10
2008,08,14,08,02,19.30
2008,08,14,08,03,19.50
2008,08,14,08,04,19.70
2008,08,14,08,05,19.90
2008,08,14,08,06,20.10
2008,08,14,08,07,20.20
2008,08,14,08,08,20.30
2008,08,14,08,09,20.40
2008,08,14,08,10,20.50
2008,08,14,08,11,20.60
2008,08,14,08,12,20.60
2008,08,14,08,13,20.70
2008,08,14,08,14,20.80
2008,08,14,08,15,20.80
2008,08,14,08,16,20.80
2008,08,14,08,17,20.90
2008,08,14,08,18,21.00
2008,08,14,08,19,21.00
2008,08,14,08,20,21.10
2008,08,14,08,21,21.20
2008,08,14,08,22,21.20
2008,08,14,08,23,21.30
2008,08,14,08,24,21.30
2008,08,14,08,25,21.30
2008,08,14,08,26,21.30
2008,08,14,08,27,21.40
2008,08,14,08,28,21.40
2008,08,14,08,29,21.40
2008,08,14,08,30,21.40
2008,08,14,08,31,21.40
2008,08,14,08,32,21.40
2008,08,14,08,33,21.40
2008,08,14,08,34,21.40
2008,08,14,08,35,21.40
2008,08,14,08,36,21.40
2008,08,14,08,37,21.50
2008,08,14,08,38,21.60
2008,08,14,08,39,21.60
2008,08,14,08,40,21.60
2008,08,14,08,41,21.60
2008,08,14,08,42,21.60
2008,08,14,08,43,21.60
2008,08,14,08,44,21.60
2008,08,14,08,45,21.60
2008,08,14,08,46,21.60
2008,08,14,08,47,21.60
2008,08,14,08,48,21.60
2008,08,14,08,49,21.60
2008,08,14,08,50,21.60
2008,08,14,08,51,21.60
2008,08,14,08,52,21.60
2008,08,14,08,53,21.60
2008,08,14,08,54,21.60
2008,08,14,08,55,21.60
2008,08,14,08,56,21.60
2008,08,14,08,57,21.60
2008,08,14,08,58,21.60
2008,08,14,08,59,21.60
2008,08,14,09,00,21.60
2008,08,14,09,01,21.60
2008,08,14,09,02,21.60
2008,08,14,09,03,21.60
2008,08,14,09,04,21.60
2008,08,14,09,05,21.60
2008,08,14,09,06,21.60
2008,08,14,09,07,21.70
2008,08,14,09,08,21.70
2008,08,14,09,09,21.80
2008,08,14,09,10,21.80
2008,08,14,09,11,21.80
2008,08,14,09,12,21.80
2008,08,14,09,13,21.80
2008,08,14,09,14,21.80
2008,08,14,09,15,21.80
2008,08,14,09,16,21.80
2008,08,14,09,17,21.80
2008,08,14,09,18,21.90
2008,08,14,09,19,22.00
2008,08,14,09,20,22.00
2008,08,14,09,21,22.10
2008,08,14,09,22,22.10
2008,08,14,09,23,22.20
2008,08,14,09,24,22.30
2008,08,14,09,25,22.30
2008,08,14,09,26,22.40
2008,08,14,09,27,22.50
2008,08,14,09,28,22.60
2008,08,14,09,29,22.60
2008,08,14,09,30,22.60
2008,08,14,09,31,22.60
2008,08,14,09,32,22.60
2008,08,14,09,33,22.60
2008,08,14,09,34,22.60
2008,08,14,09,35,22.70
2008,08,14,09,36,22.70
2008,08,14,09,37,22.70
2008,08,14,09,38,22.80
2008,08,14,09,39,22.80
2008,08,14,09,40,22.90
2008,08,14,09,41,22.90
2008,08,14,09,42,22.90
2008,08,14,09,43,22.90
2008,08,14,09,44,23.00
2008,08,14,09,45,23.10
2008,08,14,09,46,23.20
2008,08,14,09,47,23.30
2008,08,14,09,48,23.30
2008,08,14,09,49,23.30
2008,08,14,09,50,23.40
2008,08,14,09,51,23.50
2008,08,14,09,52,23.60
2008,08,14,09,53,23.60
2008,08,14,09,54,23.60
2008,08,14,09,55,23.60
2008,08,14,09,56,23.70
2008,08,14,09,57,23.60
2008,08,14,09,58,23.60
2008,08,14,09,59,23.60
2008,08,14,10,00,23.50
2008,08,14,10,01,23.40
2008,08,14,10,02,23.40
2008,08,14,10,03,23.40
2008,08,14,10,04,23.30
2008,08,14,10,05,23.30
2008,08,14,10,06,23.30
2008,08,14,10,07,23.30
2008,08,14,10,08,23.30
2008,08,14,10,09,23.30
2008,08,14,10,10,23.20
2008,08,14,10,11,23.20
2008,08,14,10,12,23.30
2008,08,14,10,13,23.30
2008,08,14,10,14,23.30
2008,08,14,10,15,23.30
2008,08,14,10,16,23.30
2008,08,14,10,17,23.30
2008,08,14,10,18,23.30
2008,08,14,10,19,23.30
2008,08,14,10,20,23.10
2008,08,14,10,21,23.10
2008,08,14,10,22,23.00
2008,08,14,10,23,22.90
2008,08,14,10,24,23.00
2008,08,14,10,25,23.10
2008,08,14,10,26,23.10
2008,08,14,10,27,23.00
2008,08,14,10,28,22.90
2008,08,14,10,29,22.90
2008,08,14,10,30,22.90
2008,08,14,10,31,22.80
2008,08,14,10,32,22.70
2008,08,14,10,33,22.60
2008,08,14,10,34,22.60
2008,08,14,10,35,22.60
2008,08,14,10,36,22.50
2008,08,14,10,37,22.50
2008,08,14,10,38,22.60
2008,08,14,10,39,22.70
2008,08,14,10,40,22.90
2008,08,14,10,41,23.10
2008,08,14,10,42,23.20
2008,08,14,10,43,23.40
2008,08,14,10,44,23.60
2008,08,14,10,45,23.70
2008,08,14,10,46,23.70
2008,08,14,10,47,23.70
2008,08,14,10,48,23.70
2008,08,14,10,49,23.70
2008,08,14,10,50,23.70
2008,08,14,10,51,23.70
2008,08,14,10,52,23.70
2008,08,14,10,53,23.70
2008,08,14,10,54,23.70
2008,08,14,10,55,23.60
2008,08,14,10,56,23.50
2008,08,14,10,57,23.40
2008,08,14,10,58,23.40
2008,08,14,10,59,23.40
2008,08,14,11,00,23.50
2008,08,14,11,01,23.60
2008,08,14,11,02,23.70
2008,08,14,11,03,23.80
2008,08,14,11,04,23.90
2008,08,14,11,05,24.00
2008,08,14,11,06,24.10
2008,08,14,11,07,24.00
2008,08,14,11,08,23.90
2008,08,14,11,09,23.90
2008,08,14,11,10,23.90
2008,08,14,11,11,23.90
2008,08,14,11,12,24.00
2008,08,14,11,13,24.10
2008,08,14,11,14,24.10
2008,08,14,11,15,24.10
2008,08,14,11,16,24.10
2008,08,14,11,17,24.10
2008,08,14,11,18,23.90
2008,08,14,11,19,23.80
2008,08,14,11,20,23.80
2008,08,14,11,21,23.90
2008,08,14,11,22,24.00
2008,08,14,11,23,24.00
2008,08,14,11,24,23.90
2008,08,14,11,25,23.80
2008,08,14,11,26,23.80
2008,08,14,11,27,23.80
2008,08,14,11,28,23.90
2008,08,14,11,29,24.00
2008,08,14,11,30,24.00
2008,08,14,11,31,23.90
2008,08,14,11,32,23.80
2008,08,14,11,33,23.60
2008,08,14,11,34,23.40
2008,08,14,11,35,23.20
2008,08,14,11,36,23.00
2008,08,14,11,37,22.90
2008,08,14,11,38,22.90
2008,08,14,11,39,23.00
2008,08,14,11,40,22.90
2008,08,14,11,41,22.90
2008,08,14,11,42,23.00
2008,08,14,11,43,23.10
2008,08,14,11,44,23.20
2008,08,14,11,45,23.20
2008,08,14,11,46,23.30
2008,08,14,11,47,23.30
2008,08,14,11,48,23.30
2008,08,14,11,49,23.30
2008,08,14,11,50,23.30
2008,08,14,11,51,23.30
2008,08,14,11,52,23.20
2008,08,14,11,53,23.20
2008,08,14,11,54,23.20
2008,08,14,11,55,23.30
2008,08,14,11,56,23.30
2008,08,14,11,57,23.30
2008,08,14,11,58,23.30
2008,08,14,11,59,23.30
2008,08,14,12,00,23.30
2008,08,14,12,01,23.40
2008,08,14,12,02,23.50
2008,08,14,12,03,23.60
2008,08,14,12,04,23.70
2008,08,14,12,05,23.80
2008,08,14,12,06,23.90
2008,08,14,12,07,24.00
2008,08,14,12,08,24.10
2008,08,14,12,09,24.10
2008,08,14,12,10,24.20
2008,08,14,12,11,24.30
2008,08,14,12,12,24.40
2008,08,14,12,13,24.50
2008,08,14,12,14,24.50
2008,08,14,12,15,24.60
2008,08,14,12,16,24.60
2008,08,14,12,17,24.60
2008,08,14,12,18,24.60
2008,08,14,12,19,24.70
2008,08,14,12,20,24.60
2008,08,14,12,21,24.60
2008,08,14,12,22,24.50
2008,08,14,12,23,24.40
2008,08,14,12,24,24.40
2008,08,14,12,25,24.50
2008,08,14,12,26,24.50
2008,08,14,12,27,24.50
2008,08,14,12,28,24.50
2008,08,14,12,29,24.40
2008,08,14,12,30,24.20
2008,08,14,12,31,24.10
2008,08,14,12,32,24.10
2008,08,14,12,33,24.10
2008,08,14,12,34,24.20
2008,08,14,12,35,24.10
2008,08,14,12,36,24.00
2008,08,14,12,37,23.90
2008,08,14,12,38,23.80
2008,08,14,12,39,23.80
2008,08,14,12,40,23.70
2008,08,14,12,41,23.70
2008,08,14,12,42,23.60
2008,08,14,12,43,23.50
2008,08,14,12,44,23.50
2008,08,14,12,45,23.60
2008,08,14,12,46,23.50
2008,08,14,12,47,23.30
2008,08,14,12,48,23.30
2008,08,14,12,49,23.30
2008,08,14,12,50,23.40
2008,08,14,12,51,23.40
2008,08,14,12,52,23.30
2008,08,14,12,53,23.30
2008,08,14,12,54,23.20
2008,08,14,12,55,23.20
2008,08,14,12,56,23.10
2008,08,14,12,57,22.90
2008,08,14,12,58,22.90
2008,08,14,12,59,22.90
2008,08,14,13,00,22.90
2008,08,14,13,01,23.00
2008,08,14,13,02,23.10
2008,08,14,13,03,23.20
2008,08,14,13,04,23.30
2008,08,14,13,05,23.40
2008,08,14,13,06,23.40
2008,08,14,13,07,23.40
2008,08,14,13,08,23.40
2008,08,14,13,09,23.60
2008,08,14,13,10,23.60
2008,08,14,13,11,23.70
2008,08,14,13,12,23.70
2008,08,14,13,13,23.90
2008,08,14,13,14,24.10
2008,08,14,13,15,24.30
2008,08,14,13,16,24.30
2008,08,14,13,17,24.30
2008,08,14,13,18,24.40
2008,08,14,13,19,24.50
2008,08,14,13,20,24.60
2008,08,14,13,21,24.70
2008,08,14,13,22,24.60
2008,08,14,13,23,24.60
2008,08,14,13,24,24.50
2008,08,14,13,25,24.40
2008,08,14,13,26,24.50
2008,08,14,13,27,24.60
2008,08,14,13,28,24.70
2008,08,14,13,29,24.80
2008,08,14,13,30,24.90
2008,08,14,13,31,25.10
2008,08,14,13,32,25.10
2008,08,14,13,33,25.00
2008,08,14,13,34,24.90
2008,08,14,13,35,24.80
2008,08,14,13,36,24.70
2008,08,14,13,37,24.60
2008,08,14,13,38,24.60
2008,08,14,13,39,24.70
2008,08,14,13,40,24.70
2008,08,14,13,41,24.70
2008,08,14,13,42,24.80
2008,08,14,13,43,24.70
2008,08,14,13,44,24.60
2008,08,14,13,45,24.50
2008,08,14,13,46,24.40
2008,08,14,13,47,24.40
2008,08,14,13,48,24.50
2008,08,14,13,49,24.50
2008,08,14,13,50,24.50
2008,08,14,13,51,24.60
2008,08,14,13,52,24.60
2008,08,14,13,53,24.70
2008,08,14,13,54,24.80
2008,08,14,13,55,24.70
2008,08,14,13,56,24.80
2008,08,14,13,57,24.70
2008,08,14,13,58,24.60
2008,08,14,13,59,24.40
2008,08,14,14,00,24.30
2008,08,14,14,01,24.20
2008,08,14,14,02,24.20
2008,08,14,14,03,24.40
2008,08,14,14,04,24.50
2008,08,14,14,05,24.50
2008,08,14,14,06,24.60
2008,08,14,14,07,24.60
2008,08,14,14,08,24.60
2008,08,14,14,09,24.70
2008,08,14,14,10,24.60
2008,08,14,14,11,24.50
2008,08,14,14,12,24.50
2008,08,14,14,13,24.50
2008,08,14,14,14,24.60
2008,08,14,14,15,24.70
2008,08,14,14,16,24.70
2008,08,14,14,17,24.90
2008,08,14,14,18,25.00
2008,08,14,14,19,25.10
2008,08,14,14,20,25.20
2008,08,14,14,21,25.40
2008,08,14,14,22,25.40
2008,08,14,14,23,25.40
2008,08,14,14,24,25.50
2008,08,14,14,25,25.50
2008,08,14,14,26,25.70
2008,08,14,14,27,25.80
2008,08,14,14,28,25.90
2008,08,14,14,29,26.00
2008,08,14,14,30,26.10
2008,08,14,14,31,26.20
2008,08,14,14,32,26.20
2008,08,14,14,33,26.20
2008,08,14,14,34,26.10
2008,08,14,14,35,26.10
2008,08,14,14,36,26.10
2008,08,14,14,37,26.00
2008,08,14,14,38,26.00
2008,08,14,14,39,26.00
2008,08,14,14,40,26.00
2008,08,14,14,41,26.10
2008,08,14,14,42,26.20
2008,08,14,14,43,26.20
2008,08,14,14,44,26.20
2008,08,14,14,45,26.20
2008,08,14,14,46,26.10
2008,08,14,14,47,26.20
2008,08,14,14,48,26.20
2008,08,14,14,49,26.20
2008,08,14,14,50,26.10
2008,08,14,14,51,26.20
2008,08,14,14,52,26.20
2008,08,14,14,53,26.10
2008,08,14,14,54,26.20
2008,08,14,14,55,26.30
2008,08,14,14,56,26.50
2008,08,14,14,57,26.60
2008,08,14,14,58,26.60
2008,08,14,14,59,26.40
2008,08,14,15,00,26.30
2008,08,14,15,01,26.20
2008,08,14,15,02,26.20
2008,08,14,15,03,26.20
2008,08,14,15,04,26.10
2008,08,14,15,05,26.00
2008,08,14,15,06,26.00
2008,08,14,15,07,25.90
2008,08,14,15,08,25.90
2008,08,14,15,09,25.90
2008,08,14,15,10,25.80
2008,08,14,15,11,25.90
2008,08,14,15,12,25.90
2008,08,14,15,13,25.90
2008,08,14,15,14,25.90
2008,08,14,15,15,26.00
2008,08,14,15,16,26.20
2008,08,14,15,17,26.20
2008,08,14,15,18,26.30
2008,08,14,15,19,26.30
2008,08,14,15,20,26.20
2008,08,14,15,21,26.20
2008,08,14,15,22,26.30
2008,08,14,15,23,26.20
2008,08,14,15,24,26.20
2008,08,14,15,25,26.20
2008,08,14,15,26,26.20
2008,08,14,15,27,26.20
2008,08,14,15,28,26.20
2008,08,14,15,29,26.20
2008,08,14,15,30,26.20
2008,08,14,15,31,26.30
2008,08,14,15,32,26.40
2008,08,14,15,33,26.40
2008,08,14,15,34,26.60
2008,08,14,15,35,26.60
2008,08,14,15,36,26.60
2008,08,14,15,37,26.60
2008,08,14,15,38,26.70
2008,08,14,15,39,26.70
2008,08,14,15,40,26.70
2008,08,14,15,41,26.70
2008,08,14,15,42,26.80
2008,08,14,15,43,26.80
2008,08,14,15,44,26.80
2008,08,14,15,45,26.70
2008,08,14,15,46,26.70
2008,08,14,15,47,26.70
2008,08,14,15,48,26.80
2008,08,14,15,49,26.80
2008,08,14,15,50,27.00
2008,08,14,15,51,27.10
2008,08,14,15,52,27.10
2008,08,14,15,53,27.20
2008,08,14,15,54,27.30
2008,08,14,15,55,27.30
2008,08,14,15,56,27.40
2008,08,14,15,57,27.40
2008,08,14,15,58,27.40
2008,08,14,15,59,27.40
2008,08,14,16,00,27.60
2008,08,14,16,01,27.50
2008,08,14,16,02,27.40
2008,08,14,16,03,27.30
2008,08,14,16,04,27.30
2008,08,14,16,05,27.20
2008,08,14,16,06,27.10
2008,08,14,16,07,27.10
2008,08,14,16,08,27.10
2008,08,14,16,09,27.20
2008,08,14,16,10,27.20
2008,08,14,16,11,27.20
2008,08,14,16,12,27.30
2008,08,14,16,13,27.30
2008,08,14,16,14,27.30
2008,08,14,16,15,27.30
2008,08,14,16,16,27.30
2008,08,14,16,17,27.30
2008,08,14,16,18,27.30
2008,08,14,16,19,27.30
2008,08,14,16,20,27.30
2008,08,14,16,21,27.40
2008,08,14,16,22,27.50
2008,08,14,16,23,27.60
2008,08,14,16,24,27.60
2008,08,14,16,25,27.70
2008,08,14,16,26,27.70
2008,08,14,16,27,27.70
2008,08,14,16,28,27.80
2008,08,14,16,29,27.90
2008,08,14,16,30,27.90
2008,08,14,16,31,27.90
2008,08,14,16,32,27.90
2008,08,14,16,33,27.90
2008,08,14,16,34,27.80
2008,08,14,16,35,27.70
2008,08,14,16,36,27.60
2008,08,14,16,37,27.60
2008,08,14,16,38,27.50
2008,08,14,16,39,27.40
2008,08,14,16,40,27.50
2008,08,14,16,41,27.60
2008,08,14,16,42,27.60
2008,08,14,16,43,27.70
2008,08,14,16,44,27.70
2008,08,14,16,45,27.70
2008,08,14,16,46,27.80
2008,08,14,16,47,27.80
2008,08,14,16,48,27.80
2008,08,14,16,49,27.80
2008,08,14,16,50,27.90
2008,08,14,16,51,27.90
2008,08,14,16,52,28.00
2008,08,14,16,53,28.00
2008,08,14,16,54,27.90
2008,08,14,16,55,27.70
2008,08,14,16,56,27.70
2008,08,14,16,57,27.70
2008,08,14,16,58,27.70
2008,08,14,16,59,27.70
2008,08,14,17,00,27.70
2008,08,14,17,01,27.70
2008,08,14,17,02,27.60
2008,08,14,17,03,27.50
2008,08,14,17,04,27.40
2008,08,14,17,05,27.60
2008,08,14,17,06,27.60
2008,08,14,17,07,27.60
2008,08,14,17,08,27.60
2008,08,14,17,09,27.70
2008,08,14,17,10,27.70
2008,08,14,17,11,27.70
2008,08,14,17,12,27.70
2008,08,14,17,13,27.70
2008,08,14,17,14,27.70
2008,08,14,17,15,27.70
2008,08,14,17,16,27.70
2008,08,14,17,17,27.70
2008,08,14,17,18,27.60
2008,08,14,17,19,27.60